Location: Champs
(48.8539°N, 2.6040°E)
Time: 13:32:44
(UTC+00:00)

ADEOS II - Pass Details

Date: 26 October 2021
Orbit: 799 x 800 km, 98.6° (Epoch: 06 December)

Event Time Altitude Azimuth Distance (km) Brightness Sun altitude
Rises 02:47:02 0° 10° (N) 3,323 5.7 -36.1°
Reaches altitude 10° 02:49:26 10° 4° (N) 2,388 4.8 -35.8°
Enters shadow 02:50:11 14° 2° (N) 2,111 4.5 -35.7°
